Regional Weather Roundup
Issued by NWS Northern Indiana

Home | Current Version | Previous Version | Graphics & Text | Print | Product List | Glossary On
Versions: 1 2 3 4 5 6 7 8 9 10 11 12 13 14 15 16 17 18 19 20 21 22 23 24 25 26 27 28 29 30 31 32 33 34 35 36 37 38 39 40 41 42 43 44 45 46 47 48 49 50
000
ASUS43 KIWX 282200
RWRIWX

KIWX WEATHER ROUNDUP
NATIONAL WEATHER SERVICE NORTHERN INDIANA
600 PM EDT THU JUL 28 2016

NOTE: "FAIR" INDICATES FEW OR NO CLOUDS BELOW 12,000 FEET WITH NO
SIGNIFICANT WEATHER AND/OR OBSTRUCTIONS TO VISIBILITY.

* THESE STATIONS ARE NOT UNDER NWS QUALITY CONTROL. THEY ALSO MAY NOT
  REPORT WEATHER SUCH AS PRECIPITATION OR FOG.

INZ001>027-282300-
NORTHERN INDIANA

CITY           SKY/WX    TMP DP  RH WIND       PRES   REMARKS
GARY*          LGT RAIN  73  72  94 W9        29.92R
KNOX*          SUNNY     84  54  34 W3        29.88R
SOUTH BEND     TSTM      71  68  90 NW13      29.91R
ELKHART*       LGT RAIN  81  70  69 N5        29.91R
GOSHEN         PTSUNNY   87  64  46 E5        29.88R
MONTICELLO*    SUNNY     84  66  54 CALM      29.87S
WARSAW*        SUNNY     81  68  65 CALM      29.88R
ANGOLA*          N/A     82  77  83 NE3       29.89R
FORT WAYNE     PTSUNNY   85  63  47 SE5       29.87R
PERU/GRISSOM   SUNNY     86  65  49 VRB3      29.87

$$
INZ028>050-282300-
CENTRAL INDIANA

CITY           SKY/WX    TMP DP  RH WIND       PRES   REMARKS
LAFAYETTE      MOSUNNY   83  69  62 VRB5      29.87R
KOKOMO*        SUNNY     88  64  45 W3        29.87S
MUNCIE*        MOSUNNY   86  67  52 N9        29.87S
INDIANAPOLIS   PTSUNNY   86  68  54 NW8       29.87R

$$
MIZ043>046-050>051-056>058-064>065-071>073-077>080-282300-
SOUTHWEST LOWER MICHIGAN

CITY           SKY/WX    TMP DP  RH WIND       PRES   REMARKS
BATTLE CREEK   CLOUDY    81  65  58 NE5       29.91R
BENTON HARBOR  CLOUDY    81  66  60 E7        29.91R
COLDWATER*     SUNNY     83  63  49 N3        29.90R
HILLSDALE*     MOSUNNY   83  64  52 CALM      29.89S
HOLLAND        CLOUDY    70  65  84 SE13      29.93R THUNDER
GRAND RAPIDS   PTSUNNY   81  67  62 NE8       29.91R
KALAMAZOO      PTSUNNY   82  64  54 NE3       29.90R
STURGIS*       MOSUNNY   81  67  63 NE5       29.88R
THREE RIVERS*  FAIR      82  66  57 CALM      29.90R

$$
OHZ001>008-015>018-024>025-282300-
NORTHWEST OHIO

CITY           SKY/WX    TMP DP  RH WIND       PRES   REMARKS
DEFIANCE       MOSUNNY   87  66  49 VRB5      29.87S
FINDLAY        CLOUDY    85  65  51 NE13      29.85S
TOLEDO EXPRESS PTSUNNY   84  67  56 E7        29.86S
TOLEDO METCALF CLOUDY    84  70  62 NE7       29.87F
LIMA           PTSUNNY   86  65  49 NE3       29.87S

$$
AND FOR LAKE MICHIGAN COASTAL AND OPEN LAKE BUOY OBSERVATIONS

STATION/POSITION TEMP    WIND        PRES    VSBY  WAVE
                 AIR SEA DIR/SP/G                  HT/PER
                 (F)     (DEG/KT/KT) (MB)    (MI)  (FT/S)
CALUMET HARBOR    72     250/  3/  5 1012.3R
MICHIGAN CITY     76     360/  9/ 10   N/A
BURNS HARBOR      75     280/  8/ 16 1012.5R
SAINT JOSEPH      80      10/  7/  9 1012.5F
SOUTH LAKE BUOY   76 78  360/  8/ 10 1011.8          2/ 5
4 MI NW BRIDGMAN  77 78   20/  8/ 10 1011.4R         1
MICHIGAN CITY     77 78  360/  8/ 10   N/A           1

$$
&&




USA.gov is the U.S. government's official web portal to all federal, state and local government web resources and services.